iso_date,Year,Hour,Min,DOY,POS_DOY,Lat,Lon,BP,Ts,Ta,has_bp,has_ts,has_ta,BuoyID,Buoy_Type,Buoy_Owner,Logistics,Hemisphere
2020-09-05T18:00:00Z,2020,18,0,249.75,249.75,60.778,-51.228,-999.0,8.88,-999.0,no,yes,no,300234068342840,SVPGHI,AOML,MARIA_S._MERI,North
2020-09-05T19:02:03Z,2020,19,2,249.7931,249.7931,60.779,-51.233,-999.0,8.88,-999.0,no,yes,no,300234068342840,SVPGHI,AOML,MARIA_S._MERI,North
2020-09-05T19:59:57Z,2020,20,0,249.8333,249.8333,60.779,-51.237,-999.0,8.88,-999.0,no,yes,no,300234068342840,SVPGHI,AOML,MARIA_S._MERI,North
2020-09-05T21:00:00Z,2020,21,0,249.875,249.875,60.782,-51.245,-999.0,8.87,-999.0,no,yes,no,300234068342840,SVPGHI,AOML,MARIA_S._MERI,North
2020-09-05T22:00:02Z,2020,22,0,249.9167,249.9167,60.786,-51.242,-999.0,8.87,-999.0,no,yes,no,300234068342840,SVPGHI,AOML,MARIA_S._MERI,North
2020-09-05T23:01:58Z,2020,23,2,249.9597,249.9597,60.788,-51.241,-999.0,8.86,-999.0,no,yes,no,300234068342840,SVPGHI,AOML,MARIA_S._MERI,North
2020-09-06T00:02:00Z,2020,0,2,250.0014,250.0014,60.788,-51.234,-999.0,8.85,-999.0,no,yes,no,300234068342840,SVPGHI,AOML,MARIA_S._MERI,North
2020-09-06T01:00:02Z,2020,1,0,250.0417,250.0417,60.786,-51.226,-999.0,8.85,-999.0,no,yes,no,300234068342840,SVPGHI,AOML,MARIA_S._MERI,North
2020-09-06T01:59:57Z,2020,2,0,250.0833,250.0833,60.784,-51.217,-999.0,8.84,-999.0,no,yes,no,300234068342840,SVPGHI,AOML,MARIA_S._MERI,North
2020-09-06T03:00:00Z,2020,3,0,250.125,250.125,60.778,-51.209,-999.0,8.84,-999.0,no,yes,no,300234068342840,SVPGHI,AOML,MARIA_S._MERI,North
2020-09-06T04:02:03Z,2020,4,2,250.1681,250.1681,60.773,-51.203,-999.0,8.84,-999.0,no,yes,no,300234068342840,SVPGHI,AOML,MARIA_S._MERI,North
2020-09-06T05:00:57Z,2020,5,1,250.209,250.209,60.766,-51.2,-999.0,8.84,-999.0,no,yes,no,300234068342840,SVPGHI,AOML,MARIA_S._MERI,North
2020-09-06T06:00:00Z,2020,6,0,250.25,250.25,60.761,-51.201,-999.0,8.84,-999.0,no,yes,no,300234068342840,SVPGHI,AOML,MARIA_S._MERI,North
2020-09-06T07:00:02Z,2020,7,0,250.2917,250.2917,60.76,-51.205,-999.0,8.84,-999.0,no,yes,no,300234068342840,SVPGHI,AOML,MARIA_S._MERI,North
2020-09-06T07:59:57Z,2020,8,0,250.3333,250.3333,60.763,-51.209,-999.0,8.84,-999.0,no,yes,no,300234068342840,SVPGHI,AOML,MARIA_S._MERI,North
2020-09-06T09:01:00Z,2020,9,1,250.3757,250.3757,60.771,-51.208,-999.0,8.84,-999.0,no,yes,no,300234068342840,SVPGHI,AOML,MARIA_S._MERI,North
2020-09-06T10:00:02Z,2020,10,0,250.4167,250.4167,60.777,-51.202,-999.0,8.84,-999.0,no,yes,no,300234068342840,SVPGHI,AOML,MARIA_S._MERI,North
2020-09-06T11:00:57Z,2020,11,1,250.459,250.459,60.784,-51.196,-999.0,8.84,-999.0,no,yes,no,300234068342840,SVPGHI,AOML,MARIA_S._MERI,North
2020-09-06T12:00:00Z,2020,12,0,250.5,250.5,60.785,-51.19,-999.0,8.86,-999.0,no,yes,no,300234068342840,SVPGHI,AOML,MARIA_S._MERI,North
2020-09-06T13:01:03Z,2020,13,1,250.5424,250.5424,60.786,-51.171,-999.0,8.88,-999.0,no,yes,no,300234068342840,SVPGHI,AOML,MARIA_S._MERI,North
2020-09-06T14:00:57Z,2020,14,1,250.584,250.584,60.788,-51.157,-999.0,8.9,-999.0,no,yes,no,300234068342840,SVPGHI,AOML,MARIA_S._MERI,North
2020-09-06T15:02:00Z,2020,15,2,250.6264,250.6264,60.785,-51.14,-999.0,8.88,-999.0,no,yes,no,300234068342840,SVPGHI,AOML,MARIA_S._MERI,North
2020-09-06T16:00:02Z,2020,16,0,250.6667,250.6667,60.78,-51.132,-999.0,8.87,-999.0,no,yes,no,300234068342840,SVPGHI,AOML,MARIA_S._MERI,North
2020-09-06T16:59:57Z,2020,17,0,250.7083,250.7083,60.777,-51.127,-999.0,8.87,-999.0,no,yes,no,300234068342840,SVPGHI,AOML,MARIA_S._MERI,North
2020-09-06T18:00:00Z,2020,18,0,250.75,250.75,60.776,-51.125,-999.0,8.89,-999.0,no,yes,no,300234068342840,SVPGHI,AOML,MARIA_S._MERI,North
2020-09-06T19:00:02Z,2020,19,0,250.7917,250.7917,60.781,-51.122,-999.0,8.88,-999.0,no,yes,no,300234068342840,SVPGHI,AOML,MARIA_S._MERI,North
2020-09-06T19:59:57Z,2020,20,0,250.8333,250.8333,60.783,-51.118,-999.0,8.88,-999.0,no,yes,no,300234068342840,SVPGHI,AOML,MARIA_S._MERI,North
2020-09-06T21:04:01Z,2020,21,4,250.8778,250.8778,60.791,-51.118,-999.0,8.89,-999.0,no,yes,no,300234068342840,SVPGHI,AOML,MARIA_S._MERI,North
2020-09-06T22:00:02Z,2020,22,0,250.9167,250.9167,60.798,-51.111,-999.0,8.88,-999.0,no,yes,no,300234068342840,SVPGHI,AOML,MARIA_S._MERI,North
2020-09-06T22:59:57Z,2020,23,0,250.9583,250.9583,60.806,-51.104,-999.0,8.88,-999.0,no,yes,no,300234068342840,SVPGHI,AOML,MARIA_S._MERI,North
2020-09-07T00:00:00Z,2020,0,0,251.0,251.0,60.811,-51.093,-999.0,8.88,-999.0,no,yes,no,300234068342840,SVPGHI,AOML,MARIA_S._MERI,North
2020-09-07T01:01:03Z,2020,1,1,251.0424,251.0424,60.814,-51.089,-999.0,8.87,-999.0,no,yes,no,300234068342840,SVPGHI,AOML,MARIA_S._MERI,North
2020-09-07T02:01:58Z,2020,2,2,251.0847,251.0847,60.82,-51.081,-999.0,8.87,-999.0,no,yes,no,300234068342840,SVPGHI,AOML,MARIA_S._MERI,North
2020-09-07T03:00:00Z,2020,3,0,251.125,251.125,60.824,-51.072,-999.0,8.86,-999.0,no,yes,no,300234068342840,SVPGHI,AOML,MARIA_S._MERI,North
2020-09-07T04:03:56Z,2020,4,4,251.1694,251.1694,60.825,-51.063,-999.0,8.85,-999.0,no,yes,no,300234068342840,SVPGHI,AOML,MARIA_S._MERI,North
2020-09-07T06:04:01Z,2020,6,4,251.2528,251.2528,60.823,-51.054,-999.0,8.83,-999.0,no,yes,no,300234068342840,SVPGHI,AOML,MARIA_S._MERI,North
2020-09-07T07:03:56Z,2020,7,4,251.2944,251.2944,60.826,-51.053,-999.0,8.82,-999.0,no,yes,no,300234068342840,SVPGHI,AOML,MARIA_S._MERI,North
2020-09-07T07:59:57Z,2020,8,0,251.3333,251.3333,60.833,-51.048,-999.0,8.79,-999.0,no,yes,no,300234068342840,SVPGHI,AOML,MARIA_S._MERI,North
2020-09-07T09:04:01Z,2020,9,4,251.3778,251.3778,60.84,-51.038,-999.0,8.78,-999.0,no,yes,no,300234068342840,SVPGHI,AOML,MARIA_S._MERI,North
2020-09-07T10:03:56Z,2020,10,4,251.4194,251.4194,-90.0,-180.0,-999.0,8.76,-999.0,no,yes,no,300234068342840,SVPGHI,AOML,MARIA_S._MERI,North
2020-09-07T11:03:59Z,2020,11,4,251.4611,251.4611,-90.0,-180.0,-999.0,8.76,-999.0,no,yes,no,300234068342840,SVPGHI,AOML,MARIA_S._MERI,North
2020-09-07T12:04:01Z,2020,12,4,251.5028,251.5028,-90.0,-180.0,-999.0,8.75,-999.0,no,yes,no,300234068342840,SVPGHI,AOML,MARIA_S._MERI,North
2020-09-07T13:03:56Z,2020,13,4,251.5444,251.5444,-90.0,-180.0,-999.0,8.75,-999.0,no,yes,no,300234068342840,SVPGHI,AOML,MARIA_S._MERI,North
2020-09-07T14:01:58Z,2020,14,2,251.5847,251.5847,60.869,-51.035,-999.0,8.76,-999.0,no,yes,no,300234068342840,SVPGHI,AOML,MARIA_S._MERI,North
2020-09-07T15:01:00Z,2020,15,1,251.6257,251.6257,60.878,-51.028,-999.0,8.76,-999.0,no,yes,no,300234068342840,SVPGHI,AOML,MARIA_S._MERI,North
2020-09-07T16:03:56Z,2020,16,4,251.6694,251.6694,-90.0,-180.0,-999.0,8.74,-999.0,no,yes,no,300234068342840,SVPGHI,AOML,MARIA_S._MERI,North
2020-09-07T17:03:59Z,2020,17,4,251.7111,251.7111,60.891,-51.022,-999.0,8.74,-999.0,no,yes,no,300234068342840,SVPGHI,AOML,MARIA_S._MERI,North
2020-09-07T18:00:00Z,2020,18,0,251.75,251.75,60.897,-51.007,-999.0,8.73,-999.0,no,yes,no,300234068342840,SVPGHI,AOML,MARIA_S._MERI,North
2020-09-07T19:02:55Z,2020,19,3,251.7937,251.7937,60.903,-50.997,-999.0,8.73,-999.0,no,yes,no,300234068342840,SVPGHI,AOML,MARIA_S._MERI,North
2020-09-07T19:59:57Z,2020,20,0,251.8333,251.8333,60.911,-50.997,-999.0,8.71,-999.0,no,yes,no,300234068342840,SVPGHI,AOML,MARIA_S._MERI,North
2020-09-07T21:04:01Z,2020,21,4,251.8778,251.8778,60.922,-50.988,-999.0,8.71,-999.0,no,yes,no,300234068342840,SVPGHI,AOML,MARIA_S._MERI,North
2020-09-07T22:03:56Z,2020,22,4,251.9194,251.9194,60.93,-50.98,-999.0,8.69,-999.0,no,yes,no,300234068342840,SVPGHI,AOML,MARIA_S._MERI,North
2020-09-07T22:59:57Z,2020,23,0,251.9583,251.9583,60.937,-50.976,-999.0,8.68,-999.0,no,yes,no,300234068342840,SVPGHI,AOML,MARIA_S._MERI,North
2020-09-08T00:00:00Z,2020,0,0,252.0,252.0,60.944,-50.975,-999.0,8.65,-999.0,no,yes,no,300234068342840,SVPGHI,AOML,MARIA_S._MERI,North
2020-09-08T01:01:03Z,2020,1,1,252.0424,252.0424,60.952,-50.973,-999.0,8.65,-999.0,no,yes,no,300234068342840,SVPGHI,AOML,MARIA_S._MERI,North
2020-09-08T02:00:57Z,2020,2,1,252.084,252.084,60.96,-50.973,-999.0,8.6,-999.0,no,yes,no,300234068342840,SVPGHI,AOML,MARIA_S._MERI,North
2020-09-08T03:00:00Z,2020,3,0,252.125,252.125,60.966,-50.974,-999.0,8.57,-999.0,no,yes,no,300234068342840,SVPGHI,AOML,MARIA_S._MERI,North
2020-09-08T04:00:02Z,2020,4,0,252.1667,252.1667,60.975,-50.979,-999.0,8.54,-999.0,no,yes,no,300234068342840,SVPGHI,AOML,MARIA_S._MERI,North
2020-09-08T05:00:57Z,2020,5,1,252.209,252.209,60.987,-50.987,-999.0,8.37,-999.0,no,yes,no,300234068342840,SVPGHI,AOML,MARIA_S._MERI,North
2020-09-08T06:00:00Z,2020,6,0,252.25,252.25,61.001,-50.988,-999.0,8.11,-999.0,no,yes,no,300234068342840,SVPGHI,AOML,MARIA_S._MERI,North
2020-09-08T07:00:02Z,2020,7,0,252.2917,252.2917,61.017,-50.983,-999.0,8.12,-999.0,no,yes,no,300234068342840,SVPGHI,AOML,MARIA_S._MERI,North
2020-09-08T07:59:57Z,2020,8,0,252.3333,252.3333,61.032,-50.974,-999.0,8.05,-999.0,no,yes,no,300234068342840,SVPGHI,AOML,MARIA_S._MERI,North
2020-09-08T09:00:00Z,2020,9,0,252.375,252.375,61.044,-50.964,-999.0,8.09,-999.0,no,yes,no,300234068342840,SVPGHI,AOML,MARIA_S._MERI,North
2020-09-08T10:02:03Z,2020,10,2,252.4181,252.4181,61.054,-50.958,-999.0,8.31,-999.0,no,yes,no,300234068342840,SVPGHI,AOML,MARIA_S._MERI,North
2020-09-08T10:59:57Z,2020,11,0,252.4583,252.4583,61.062,-50.958,-999.0,8.44,-999.0,no,yes,no,300234068342840,SVPGHI,AOML,MARIA_S._MERI,North
2020-09-08T12:00:00Z,2020,12,0,252.5,252.5,61.072,-50.965,-999.0,8.54,-999.0,no,yes,no,300234068342840,SVPGHI,AOML,MARIA_S._MERI,North
2020-09-08T13:00:02Z,2020,13,0,252.5417,252.5417,61.083,-50.973,-999.0,8.58,-999.0,no,yes,no,300234068342840,SVPGHI,AOML,MARIA_S._MERI,North
2020-09-08T13:59:57Z,2020,14,0,252.5833,252.5833,61.093,-50.988,-999.0,8.58,-999.0,no,yes,no,300234068342840,SVPGHI,AOML,MARIA_S._MERI,North
2020-09-08T15:00:00Z,2020,15,0,252.625,252.625,61.104,-51.009,-999.0,8.59,-999.0,no,yes,no,300234068342840,SVPGHI,AOML,MARIA_S._MERI,North
2020-09-08T16:00:02Z,2020,16,0,252.6667,252.6667,61.116,-51.029,-999.0,8.59,-999.0,no,yes,no,300234068342840,SVPGHI,AOML,MARIA_S._MERI,North
2020-09-08T17:00:57Z,2020,17,1,252.709,252.709,61.135,-51.042,-999.0,8.58,-999.0,no,yes,no,300234068342840,SVPGHI,AOML,MARIA_S._MERI,North
2020-09-08T18:00:00Z,2020,18,0,252.75,252.75,61.151,-51.049,-999.0,8.58,-999.0,no,yes,no,300234068342840,SVPGHI,AOML,MARIA_S._MERI,North
2020-09-08T19:00:02Z,2020,19,0,252.7917,252.7917,61.164,-51.058,-999.0,8.56,-999.0,no,yes,no,300234068342840,SVPGHI,AOML,MARIA_S._MERI,North
2020-09-08T19:59:57Z,2020,20,0,252.8333,252.8333,61.18,-51.07,-999.0,8.53,-999.0,no,yes,no,300234068342840,SVPGHI,AOML,MARIA_S._MERI,North
2020-09-08T21:01:00Z,2020,21,1,252.8757,252.8757,61.194,-51.088,-999.0,8.43,-999.0,no,yes,no,300234068342840,SVPGHI,AOML,MARIA_S._MERI,North
2020-09-08T22:01:03Z,2020,22,1,252.9174,252.9174,61.209,-51.107,-999.0,8.42,-999.0,no,yes,no,300234068342840,SVPGHI,AOML,MARIA_S._MERI,North
2020-09-08T23:00:57Z,2020,23,1,252.959,252.959,61.228,-51.132,-999.0,8.42,-999.0,no,yes,no,300234068342840,SVPGHI,AOML,MARIA_S._MERI,North
2020-09-09T00:01:00Z,2020,0,1,253.0007,253.0007,61.246,-51.151,-999.0,8.39,-999.0,no,yes,no,300234068342840,SVPGHI,AOML,MARIA_S._MERI,North
2020-09-09T01:00:02Z,2020,1,0,253.0417,253.0417,61.261,-51.17,-999.0,8.37,-999.0,no,yes,no,300234068342840,SVPGHI,AOML,MARIA_S._MERI,North
2020-09-09T01:59:57Z,2020,2,0,253.0833,253.0833,61.272,-51.193,-999.0,8.35,-999.0,no,yes,no,300234068342840,SVPGHI,AOML,MARIA_S._MERI,North
2020-09-09T03:00:00Z,2020,3,0,253.125,253.125,61.281,-51.214,-999.0,8.32,-999.0,no,yes,no,300234068342840,SVPGHI,AOML,MARIA_S._MERI,North
2020-09-09T04:01:03Z,2020,4,1,253.1674,253.1674,61.286,-51.237,-999.0,8.28,-999.0,no,yes,no,300234068342840,SVPGHI,AOML,MARIA_S._MERI,North
2020-09-09T04:59:57Z,2020,5,0,253.2083,253.2083,61.289,-51.263,-999.0,8.27,-999.0,no,yes,no,300234068342840,SVPGHI,AOML,MARIA_S._MERI,North
2020-09-09T06:00:00Z,2020,6,0,253.25,253.25,61.292,-51.291,-999.0,8.26,-999.0,no,yes,no,300234068342840,SVPGHI,AOML,MARIA_S._MERI,North
2020-09-09T07:00:02Z,2020,7,0,253.2917,253.2917,61.291,-51.327,-999.0,8.25,-999.0,no,yes,no,300234068342840,SVPGHI,AOML,MARIA_S._MERI,North
2020-09-09T07:59:57Z,2020,8,0,253.3333,253.3333,61.294,-51.369,-999.0,8.23,-999.0,no,yes,no,300234068342840,SVPGHI,AOML,MARIA_S._MERI,North
2020-09-09T09:00:00Z,2020,9,0,253.375,253.375,61.3,-51.419,-999.0,8.22,-999.0,no,yes,no,300234068342840,SVPGHI,AOML,MARIA_S._MERI,North
2020-09-09T10:00:02Z,2020,10,0,253.4167,253.4167,61.31,-51.472,-999.0,8.22,-999.0,no,yes,no,300234068342840,SVPGHI,AOML,MARIA_S._MERI,North
2020-09-09T10:59:57Z,2020,11,0,253.4583,253.4583,61.322,-51.517,-999.0,8.21,-999.0,no,yes,no,300234068342840,SVPGHI,AOML,MARIA_S._MERI,North
2020-09-09T12:00:00Z,2020,12,0,253.5,253.5,61.339,-51.556,-999.0,8.27,-999.0,no,yes,no,300234068342840,SVPGHI,AOML,MARIA_S._MERI,North
2020-09-09T13:00:02Z,2020,13,0,253.5417,253.5417,61.344,-51.59,-999.0,8.32,-999.0,no,yes,no,300234068342840,SVPGHI,AOML,MARIA_S._MERI,North
2020-09-09T13:59:57Z,2020,14,0,253.5833,253.5833,61.353,-51.63,-999.0,8.33,-999.0,no,yes,no,300234068342840,SVPGHI,AOML,MARIA_S._MERI,North
2020-09-09T15:00:00Z,2020,15,0,253.625,253.625,61.362,-51.659,-999.0,8.34,-999.0,no,yes,no,300234068342840,SVPGHI,AOML,MARIA_S._MERI,North
2020-09-09T16:00:02Z,2020,16,0,253.6667,253.6667,61.369,-51.689,-999.0,8.29,-999.0,no,yes,no,300234068342840,SVPGHI,AOML,MARIA_S._MERI,North
2020-09-09T16:59:57Z,2020,17,0,253.7083,253.7083,61.374,-51.715,-999.0,8.29,-999.0,no,yes,no,300234068342840,SVPGHI,AOML,MARIA_S._MERI,North
2020-09-09T18:00:00Z,2020,18,0,253.75,253.75,61.376,-51.742,-999.0,8.29,-999.0,no,yes,no,300234068342840,SVPGHI,AOML,MARIA_S._MERI,North
2020-09-09T19:00:02Z,2020,19,0,253.7917,253.7917,61.371,-51.771,-999.0,8.31,-999.0,no,yes,no,300234068342840,SVPGHI,AOML,MARIA_S._MERI,North
2020-09-09T19:59:57Z,2020,20,0,253.8333,253.8333,61.373,-51.809,-999.0,8.34,-999.0,no,yes,no,300234068342840,SVPGHI,AOML,MARIA_S._MERI,North
2020-09-09T21:04:01Z,2020,21,4,253.8778,253.8778,61.37,-51.854,-999.0,8.36,-999.0,no,yes,no,300234068342840,SVPGHI,AOML,MARIA_S._MERI,North
2020-09-09T22:02:55Z,2020,22,3,253.9187,253.9187,61.378,-51.892,-999.0,8.39,-999.0,no,yes,no,300234068342840,SVPGHI,AOML,MARIA_S._MERI,North
2020-09-09T22:59:57Z,2020,23,0,253.9583,253.9583,61.388,-51.926,-999.0,8.39,-999.0,no,yes,no,300234068342840,SVPGHI,AOML,MARIA_S._MERI,North
2020-09-10T00:03:01Z,2020,0,3,254.0021,254.0021,61.399,-51.964,-999.0,8.37,-999.0,no,yes,no,300234068342840,SVPGHI,AOML,MARIA_S._MERI,North
2020-09-10T01:00:02Z,2020,1,0,254.0417,254.0417,61.411,-51.995,-999.0,8.38,-999.0,no,yes,no,300234068342840,SVPGHI,AOML,MARIA_S._MERI,North
2020-09-10T01:59:57Z,2020,2,0,254.0833,254.0833,61.424,-52.025,-999.0,8.37,-999.0,no,yes,no,300234068342840,SVPGHI,AOML,MARIA_S._MERI,North
2020-09-10T03:00:00Z,2020,3,0,254.125,254.125,61.436,-52.051,-999.0,8.38,-999.0,no,yes,no,300234068342840,SVPGHI,AOML,MARIA_S._MERI,North
2020-09-10T04:03:56Z,2020,4,4,254.1694,254.1694,61.447,-52.073,-999.0,8.43,-999.0,no,yes,no,300234068342840,SVPGHI,AOML,MARIA_S._MERI,North
2020-09-10T04:59:57Z,2020,5,0,254.2083,254.2083,61.457,-52.095,-999.0,8.45,-999.0,no,yes,no,300234068342840,SVPGHI,AOML,MARIA_S._MERI,North
2020-09-10T06:04:01Z,2020,6,4,254.2528,254.2528,61.469,-52.121,-999.0,8.44,-999.0,no,yes,no,300234068342840,SVPGHI,AOML,MARIA_S._MERI,North
2020-09-10T07:00:02Z,2020,7,0,254.2917,254.2917,61.475,-52.135,-999.0,8.42,-999.0,no,yes,no,300234068342840,SVPGHI,AOML,MARIA_S._MERI,North
2020-09-10T07:59:57Z,2020,8,0,254.3333,254.3333,61.48,-52.155,-999.0,8.42,-999.0,no,yes,no,300234068342840,SVPGHI,AOML,MARIA_S._MERI,North
2020-09-10T09:00:00Z,2020,9,0,254.375,254.375,61.488,-52.184,-999.0,8.43,-999.0,no,yes,no,300234068342840,SVPGHI,AOML,MARIA_S._MERI,North
2020-09-10T10:02:55Z,2020,10,3,254.4187,254.4187,61.499,-52.225,-999.0,8.42,-999.0,no,yes,no,300234068342840,SVPGHI,AOML,MARIA_S._MERI,North
2020-09-10T11:00:57Z,2020,11,1,254.459,254.459,61.507,-52.249,-999.0,8.39,-999.0,no,yes,no,300234068342840,SVPGHI,AOML,MARIA_S._MERI,North
2020-09-10T12:01:00Z,2020,12,1,254.5007,254.5007,61.522,-52.277,-999.0,8.42,-999.0,no,yes,no,300234068342840,SVPGHI,AOML,MARIA_S._MERI,North
2020-09-10T13:02:55Z,2020,13,3,254.5437,254.5437,61.53,-52.306,-999.0,8.41,-999.0,no,yes,no,300234068342840,SVPGHI,AOML,MARIA_S._MERI,North
2020-09-10T14:00:57Z,2020,14,1,254.584,254.584,61.547,-52.338,-999.0,8.41,-999.0,no,yes,no,300234068342840,SVPGHI,AOML,MARIA_S._MERI,North
2020-09-10T15:00:00Z,2020,15,0,254.625,254.625,61.559,-52.355,-999.0,8.42,-999.0,no,yes,no,300234068342840,SVPGHI,AOML,MARIA_S._MERI,North
2020-09-10T16:00:02Z,2020,16,0,254.6667,254.6667,61.57,-52.375,-999.0,8.42,-999.0,no,yes,no,300234068342840,SVPGHI,AOML,MARIA_S._MERI,North
2020-09-10T17:02:58Z,2020,17,3,254.7104,254.7104,61.582,-52.397,-999.0,8.42,-999.0,no,yes,no,300234068342840,SVPGHI,AOML,MARIA_S._MERI,North
2020-09-10T18:00:00Z,2020,18,0,254.75,254.75,61.593,-52.42,-999.0,8.43,-999.0,no,yes,no,300234068342840,SVPGHI,AOML,MARIA_S._MERI,North
2020-09-10T19:03:56Z,2020,19,4,254.7944,254.7944,61.603,-52.443,-999.0,8.44,-999.0,no,yes,no,300234068342840,SVPGHI,AOML,MARIA_S._MERI,North
2020-09-10T20:03:59Z,2020,20,4,254.8361,254.8361,61.616,-52.462,-999.0,8.43,-999.0,no,yes,no,300234068342840,SVPGHI,AOML,MARIA_S._MERI,North
2020-09-10T21:04:01Z,2020,21,4,254.8778,254.8778,61.629,-52.48,-999.0,8.43,-999.0,no,yes,no,300234068342840,SVPGHI,AOML,MARIA_S._MERI,North
2020-09-10T22:02:55Z,2020,22,3,254.9187,254.9187,61.634,-52.501,-999.0,8.41,-999.0,no,yes,no,300234068342840,SVPGHI,AOML,MARIA_S._MERI,North
2020-09-10T23:00:57Z,2020,23,1,254.959,254.959,61.644,-52.511,-999.0,8.39,-999.0,no,yes,no,300234068342840,SVPGHI,AOML,MARIA_S._MERI,North
2020-09-11T00:04:01Z,2020,0,4,255.0028,255.0028,61.654,-52.527,-999.0,8.4,-999.0,no,yes,no,300234068342840,SVPGHI,AOML,MARIA_S._MERI,North
2020-09-11T01:03:56Z,2020,1,4,255.0444,255.0444,61.663,-52.545,-999.0,8.4,-999.0,no,yes,no,300234068342840,SVPGHI,AOML,MARIA_S._MERI,North
2020-09-11T02:00:57Z,2020,2,1,255.084,255.084,61.673,-52.56,-999.0,8.38,-999.0,no,yes,no,300234068342840,SVPGHI,AOML,MARIA_S._MERI,North
2020-09-11T03:01:00Z,2020,3,1,255.1257,255.1257,61.691,-52.58,-999.0,8.34,-999.0,no,yes,no,300234068342840,SVPGHI,AOML,MARIA_S._MERI,North
2020-09-11T04:03:56Z,2020,4,4,255.1694,255.1694,61.699,-52.589,-999.0,8.34,-999.0,no,yes,no,300234068342840,SVPGHI,AOML,MARIA_S._MERI,North
2020-09-11T04:59:57Z,2020,5,0,255.2083,255.2083,61.713,-52.603,-999.0,8.33,-999.0,no,yes,no,300234068342840,SVPGHI,AOML,MARIA_S._MERI,North
2020-09-11T06:02:00Z,2020,6,2,255.2514,255.2514,61.724,-52.612,-999.0,8.33,-999.0,no,yes,no,300234068342840,SVPGHI,AOML,MARIA_S._MERI,North
2020-09-11T07:01:03Z,2020,7,1,255.2924,255.2924,61.734,-52.62,-999.0,8.33,-999.0,no,yes,no,300234068342840,SVPGHI,AOML,MARIA_S._MERI,North
2020-09-11T07:59:57Z,2020,8,0,255.3333,255.3333,61.745,-52.624,-999.0,8.32,-999.0,no,yes,no,300234068342840,SVPGHI,AOML,MARIA_S._MERI,North
2020-09-11T09:00:00Z,2020,9,0,255.375,255.375,61.754,-52.628,-999.0,8.29,-999.0,no,yes,no,300234068342840,SVPGHI,AOML,MARIA_S._MERI,North
2020-09-11T10:03:56Z,2020,10,4,255.4194,255.4194,61.761,-52.636,-999.0,8.27,-999.0,no,yes,no,300234068342840,SVPGHI,AOML,MARIA_S._MERI,North
2020-09-11T10:59:57Z,2020,11,0,255.4583,255.4583,61.771,-52.644,-999.0,8.26,-999.0,no,yes,no,300234068342840,SVPGHI,AOML,MARIA_S._MERI,North
2020-09-11T12:00:00Z,2020,12,0,255.5,255.5,61.781,-52.654,-999.0,8.2,-999.0,no,yes,no,300234068342840,SVPGHI,AOML,MARIA_S._MERI,North
2020-09-11T13:00:02Z,2020,13,0,255.5417,255.5417,61.792,-52.666,-999.0,8.21,-999.0,no,yes,no,300234068342840,SVPGHI,AOML,MARIA_S._MERI,North
2020-09-11T13:59:57Z,2020,14,0,255.5833,255.5833,61.804,-52.674,-999.0,8.22,-999.0,no,yes,no,300234068342840,SVPGHI,AOML,MARIA_S._MERI,North
2020-09-11T15:00:00Z,2020,15,0,255.625,255.625,61.815,-52.681,-999.0,8.24,-999.0,no,yes,no,300234068342840,SVPGHI,AOML,MARIA_S._MERI,North
2020-09-11T16:00:02Z,2020,16,0,255.6667,255.6667,61.825,-52.686,-999.0,8.25,-999.0,no,yes,no,300234068342840,SVPGHI,AOML,MARIA_S._MERI,North
2020-09-11T16:59:57Z,2020,17,0,255.7083,255.7083,61.835,-52.692,-999.0,8.13,-999.0,no,yes,no,300234068342840,SVPGHI,AOML,MARIA_S._MERI,North
2020-09-11T18:01:00Z,2020,18,1,255.7507,255.7507,61.848,-52.695,-999.0,8.03,-999.0,no,yes,no,300234068342840,SVPGHI,AOML,MARIA_S._MERI,North
2020-09-11T19:00:02Z,2020,19,0,255.7917,255.7917,61.859,-52.695,-999.0,8.11,-999.0,no,yes,no,300234068342840,SVPGHI,AOML,MARIA_S._MERI,North
2020-09-11T19:59:57Z,2020,20,0,255.8333,255.8333,61.869,-52.693,-999.0,8.16,-999.0,no,yes,no,300234068342840,SVPGHI,AOML,MARIA_S._MERI,North
2020-09-11T21:00:00Z,2020,21,0,255.875,255.875,61.878,-52.693,-999.0,8.15,-999.0,no,yes,no,300234068342840,SVPGHI,AOML,MARIA_S._MERI,North
2020-09-11T22:03:56Z,2020,22,4,255.9194,255.9194,61.885,-52.691,-999.0,8.16,-999.0,no,yes,no,300234068342840,SVPGHI,AOML,MARIA_S._MERI,North
2020-09-11T22:59:57Z,2020,23,0,255.9583,255.9583,61.891,-52.69,-999.0,8.2,-999.0,no,yes,no,300234068342840,SVPGHI,AOML,MARIA_S._MERI,North
2020-09-12T00:00:00Z,2020,0,0,256.0,256.0,61.897,-52.692,-999.0,8.17,-999.0,no,yes,no,300234068342840,SVPGHI,AOML,MARIA_S._MERI,North
2020-09-12T01:00:02Z,2020,1,0,256.0417,256.0417,61.905,-52.698,-999.0,8.12,-999.0,no,yes,no,300234068342840,SVPGHI,AOML,MARIA_S._MERI,North
2020-09-12T01:59:57Z,2020,2,0,256.0833,256.0833,61.914,-52.703,-999.0,8.13,-999.0,no,yes,no,300234068342840,SVPGHI,AOML,MARIA_S._MERI,North
2020-09-12T03:00:00Z,2020,3,0,256.125,256.125,61.92,-52.708,-999.0,7.95,-999.0,no,yes,no,300234068342840,SVPGHI,AOML,MARIA_S._MERI,North
2020-09-12T04:00:02Z,2020,4,0,256.1667,256.1667,61.929,-52.713,-999.0,8.02,-999.0,no,yes,no,300234068342840,SVPGHI,AOML,MARIA_S._MERI,North
2020-09-12T04:59:57Z,2020,5,0,256.2083,256.2083,61.936,-52.718,-999.0,8.06,-999.0,no,yes,no,300234068342840,SVPGHI,AOML,MARIA_S._MERI,North
2020-09-12T06:00:00Z,2020,6,0,256.25,256.25,61.945,-52.723,-999.0,8.06,-999.0,no,yes,no,300234068342840,SVPGHI,AOML,MARIA_S._MERI,North
2020-09-12T07:00:02Z,2020,7,0,256.2917,256.2917,61.951,-52.73,-999.0,8.11,-999.0,no,yes,no,300234068342840,SVPGHI,AOML,MARIA_S._MERI,North
2020-09-12T07:59:57Z,2020,8,0,256.3333,256.3333,61.958,-52.733,-999.0,8.12,-999.0,no,yes,no,300234068342840,SVPGHI,AOML,MARIA_S._MERI,North
2020-09-12T09:00:00Z,2020,9,0,256.375,256.375,61.963,-52.738,-999.0,7.76,-999.0,no,yes,no,300234068342840,SVPGHI,AOML,MARIA_S._MERI,North
2020-09-12T10:00:02Z,2020,10,0,256.4167,256.4167,61.967,-52.745,-999.0,7.88,-999.0,no,yes,no,300234068342840,SVPGHI,AOML,MARIA_S._MERI,North
2020-09-12T10:59:57Z,2020,11,0,256.4583,256.4583,61.97,-52.749,-999.0,8.0,-999.0,no,yes,no,300234068342840,SVPGHI,AOML,MARIA_S._MERI,North
2020-09-12T12:00:00Z,2020,12,0,256.5,256.5,61.974,-52.76,-999.0,8.04,-999.0,no,yes,no,300234068342840,SVPGHI,AOML,MARIA_S._MERI,North
2020-09-12T13:02:03Z,2020,13,2,256.5431,256.5431,61.98,-52.772,-999.0,8.11,-999.0,no,yes,no,300234068342840,SVPGHI,AOML,MARIA_S._MERI,North
2020-09-12T13:59:57Z,2020,14,0,256.5833,256.5833,61.987,-52.784,-999.0,8.14,-999.0,no,yes,no,300234068342840,SVPGHI,AOML,MARIA_S._MERI,North
2020-09-12T15:00:00Z,2020,15,0,256.625,256.625,61.995,-52.791,-999.0,8.19,-999.0,no,yes,no,300234068342840,SVPGHI,AOML,MARIA_S._MERI,North
2020-09-12T16:00:02Z,2020,16,0,256.6667,256.6667,62.0,-52.798,-999.0,8.18,-999.0,no,yes,no,300234068342840,SVPGHI,AOML,MARIA_S._MERI,North
2020-09-12T16:59:57Z,2020,17,0,256.7083,256.7083,62.004,-52.805,-999.0,8.23,-999.0,no,yes,no,300234068342840,SVPGHI,AOML,MARIA_S._MERI,North
2020-09-12T18:00:00Z,2020,18,0,256.75,256.75,62.008,-52.816,-999.0,8.23,-999.0,no,yes,no,300234068342840,SVPGHI,AOML,MARIA_S._MERI,North
2020-09-12T19:00:02Z,2020,19,0,256.7917,256.7917,62.014,-52.826,-999.0,8.26,-999.0,no,yes,no,300234068342840,SVPGHI,AOML,MARIA_S._MERI,North
2020-09-12T19:59:57Z,2020,20,0,256.8333,256.8333,62.016,-52.834,-999.0,8.26,-999.0,no,yes,no,300234068342840,SVPGHI,AOML,MARIA_S._MERI,North
2020-09-12T21:00:00Z,2020,21,0,256.875,256.875,62.016,-52.845,-999.0,8.26,-999.0,no,yes,no,300234068342840,SVPGHI,AOML,MARIA_S._MERI,North